Regional Weather Roundup
Issued by NWS Boston, MA

Current Version | Previous Version | Text Only | Print | Product List | Glossary Off
Versions: 1 2 3 4 5 6 7 8 9 10 11 12 13 14 15 16 17 18 19 20 21 22 23 24 25 26 27
000 ASUS41 KBOX 210210 RWRBOX REGIONAL WEATHER ROUNDUP NATIONAL WEATHER SERVICE TAUNTON MA 1000 PM EDT WED SEP 20 2017 NOTE: "FAIR" INDICATES FEW OR NO CLOUDS BELOW 12,000 FEET WITH NO SIGNIFICANT WEATHER AND/OR OBSTRUCTIONS TO VISIBILITY. MAZALL-210300- EASTERN MASSACHUSETTS CITY SKY/WX TMP DP RH WIND PRES REMARKS BOSTON CLOUDY 71 66 84 N18G26 29.88R BEVERLY CLOUDY 71 66 84 N15G23 29.88S LAWRENCE CLOUDY 74 66 76 N14 29.92S BEDFORD CLOUDY 72 64 76 N13G20 29.89R BLUE HILL N/A 69 65 86 N15G26 29.88R NORWOOD CLOUDY 73 68 84 N10G20 29.87R MARSHFIELD CLOUDY 66 64 94 N9G24 29.85S PLYMOUTH CLOUDY 68 63 84 N25G36 29.83S TAUNTON CLOUDY 69 65 86 N10G22 29.84R NEW BEDFORD CLOUDY 69 65 86 N14G25 29.80S $$ MAZALL-210300- CAPE COD AND THE ISLANDS CITY SKY/WX TMP DP RH WIND PRES REMARKS FALMOUTH CLOUDY 66 66 100 N18G24 29.79R HYANNIS CLOUDY 65 63 93 N20G32 29.73S CHATHAM CLOUDY 68 68 100 NE18G33 29.74R PROVINCETOWN CLOUDY 64 62 93 N20G25 29.81R NANTUCKET LGT RAIN 66 66 100 N35G47 29.66S MARTHAS VNYRD LGT RAIN 69 66 90 N25G37 29.74S $$ MAZALL-210300- CENTRAL AND WESTERN MASSACHUSETTS CITY SKY/WX TMP DP RH WIND PRES REMARKS WORCESTER CLOUDY 68 62 81 N15G21 29.93S FITCHBURG MOCLDY 72 65 78 N9 29.94S ORANGE CLOUDY 71 64 78 N8 29.95S SPRINGFIELD MOCLDY 70 63 78 NE7 29.91F WESTFIELD CLOUDY 72 65 78 N6 29.93F NORTH ADAMS CLOUDY 68 63 84 CALM 29.98S PITTSFIELD CLOUDY 68 62 81 NE5 29.98S $$ RIZALL-210300- RHODE ISLAND CITY SKY/WX TMP DP RH WIND PRES REMARKS PROVIDENCE CLOUDY 71 68 90 N16 29.86R NEWPORT CLOUDY 70 68 93 N22G31 29.82R BLOCK ISLAND CLOUDY 70 66 87 N21G29 29.82R SMITHFIELD CLOUDY 68 67 96 N12G21 29.89R WESTERLY CLOUDY 72 66 81 N13G22 29.85R $$ CTZALL-210300- CONNECTICUT CITY SKY/WX TMP DP RH WIND PRES REMARKS BRADLEY INTL CLOUDY 72 64 76 N7 29.92F HARTFORD CLOUDY 73 65 75 N8 29.90F BRIDGEPORT CLOUDY 75 63 66 N12 29.90R DANBURY CLOUDY 73 64 73 N8 29.94S GROTON CLOUDY 72 65 78 N14 29.84S NEW HAVEN CLOUDY 74 64 71 N12G25 29.89S CHESTER MOCLDY 72 64 78 N9 29.89F MERIDEN CLOUDY 73 63 70 N9G18 29.90F WILLIMANTIC CLOUDY 73 66 78 N8G17 29.89S OXFORD CLOUDY 70 64 83 N13 29.94S $$ MEZ002-015-021-024-NHZ003-005-008-011-012-014-VTZ005-008-210300- NORTHERN NEW ENGLAND CITY SKY/WX TMP DP RH WIND PRES REMARKS PORTLAND ME PTCLDY 70 64 81 N10 29.95R BANGOR ME MOCLDY 69 63 81 N9 29.99S CONCORD NH CLOUDY 68 64 87 NW5 29.96S MANCHESTER NH CLOUDY 71 66 84 N10 29.92S NASHUA NH CLOUDY 71 66 84 N7 29.93S PORTSMOUTH NH MOCLDY 71 65 80 N10 29.91R JAFFREY NH MOCLDY 67 66 97 CALM 29.98S KEENE NH MOCLDY 66 63 90 NE3 29.97S BURLINGTON VT CLOUDY 70 66 87 N7 30.03R MT. WASHINGTON FOG 50 50 100 NE35G45 N/A VSB 0 $$ NYZ052-076-210300- EASTERN NEW YORK CITY SKY/WX TMP DP RH WIND PRES REMARKS ALBANY CLOUDY 70 63 78 N6 29.99R NEW YORK CITY CLOUDY 76 65 68 N12 29.91S $$ ANZALL-210300- MARINE OBSERVATIONS STATION/POSITION TIME TEMP WIND PRES VSBY WAVE AIR SEA DIR/SP/G HT/PER (UTC) (F) (DEG/KT/KT) (MB) (MI) (FT/S) BOSTON BUOY 0150 64 60 20/ 16/ 17 1011.1R 8/ 7 BUZZARDS BAY 0100 69 10/ 30/ 35 1007.8F NANTUCKET SOUND 0150 68 66 10/ 29/ 37 1004.9F 5/ 5 MASS BAY-STELLWA 0104 64 62 20/ 17/ 19 1010.5F 7/ 6 ISLE OF SHOALS 0100 66 20/ 16/ 19 1011.9F S OF BLOCK IS NOT AVBL $$ ......................KEY......................... SKY/WX - SKY CONDITION/PRESENT WEATHER TMP - TEMPERATURE IN FAHRENHEIT DWPT - DEWPOINT IN FAHRENHEIT RH - RELATIVE HUMIDITY IN PERCENT WIND - DIRECTION AND SPEED IN MPH PRES - MEAN SEA LEVEL PRESSURE IN INCHES OF HG WCI - WIND CHILL INDEX VSB - VISIBILITY IN MILES HX - HEAT INDEX TC - TEMPERATURE IN CELSIUS VRB - VARIABLE WIND DIRECTION N/A - NOT AVAILABLE

USA.gov is the U.S. government's official web portal to all federal, state and local government web resources and services.